Regional Weather Roundup
Issued by NWS

Home | Current Version | Previous Version | Graphics & Text | Print | Product List | Glossary On
Versions: 1 2 3 4 5 6 7 8 9 10 11 12 13 14 15 16 17 18 19 20 21 22 23 24 25 26 27 28 29 30 31 32 33 34 35 36 37 38 39 40 41 42 43 44 45 46 47 48 49 50
000
ASUS45 KABQ 261401
RWRNM
WEATHER ROUNDUP FOR NEW MEXICO
NATIONAL WEATHER SERVICE ALBUQUERQUE NM
700 AM MST FRI DEC 26 2014

NOTE: "FAIR" MEANS FEW OR NO CLOUDS BELOW 12,000 FEET AGL WITH NO
       SIGNIFICANT WEATHER OR OBSTRUCTIONS TO VISION.

      THIS PRODUCT IS RELEASED AS TWO VERSIONS.  ONE VERSION NEAR
      THE TOP OF THE HOUR CONTAINING PRELIMINARY DATA FROM ALBUQUERQUE
      AND OTHER STATIONS.  A FINAL VERSION WITH ADDITIONAL DATA IS
      ISSUED ABOUT 10 MINUTES AFTER THE HOUR.

NMZ501-503-504-510>518-261500-
NORTHWEST PLATEAU/NORTHCENTRAL MOUNTAINS

CITY           SKY/WX    TMP DP  RH WIND       PRES   REMARKS
FARMINGTON     LGT SNOW  25  23  92 CALM      29.72R FOG
SANTA FE       CLOUDY    23  20  88 CALM      29.73R
TAOS           MOCLDY    18  16  93 SW10      29.71R WCI   6
ANGEL FIRE     FLURRIES  23  19  83 S10       29.69R WCI  13

$$
NMZ402-403-502-505>509-261500-
WESTCENTRAL MOUNTAINS/SOUTHWEST MOUNTAINS

CITY           SKY/WX    TMP DP  RH WIND       PRES   REMARKS
GALLUP         FLURRIES  17  14  88 SW9       29.75R WCI   6
GRANTS         CLOUDY    16  14  93 S12       29.76R WCI   3
SILVER CITY    MOCLDY    32  25  74 W12       29.87R WCI  23

$$
NMZ407-409-411-412-261500-
SOUTHERN DESERTS

CITY           SKY/WX    TMP DP  RH WIND       PRES   REMARKS
LORDSBURG      CLOUDY    36  32  87 W10       29.88R WCI  28
DEMING         MOCLDY    33  33 100 SW8       29.86R WCI  26
HOLLOMAN AFB   MOCLDY    40  36  86 S15       29.81F WCI  31
ALAMOGORDO     LGT RAIN  39  36  87 S16G28    29.84S WCI  30
T OR C         CLEAR     34  16  47 W9        29.79R WCI  27

$$
NMZ519>523-261500-
CENTRAL VALLEYS/CENTRAL HIGHLANDS

CITY           SKY/WX    TMP DP  RH WIND       PRES   REMARKS
ALBUQUERQUE    FOG       30  30 100 SW5       29.78R VSB 1/4 WCI  25
DOUBLE EAGLE   MOCLDY    25  25 100 SW6       29.77R WCI  18
MORIARTY ARPT  CLOUDY    27  25  94 CALM      29.76R
CLINES CORNERS CLOUDY    23  21  92 CALM      29.71R
BELEN          FLURRIES  31  31 100 SW6       29.79R WCI  25
SOCORRO        NOT AVBL

$$
NMZ524>526-539-540-261500-
SOUTHCENTRAL MOUNTAINS

CITY           SKY/WX    TMP DP  RH WIND       PRES   REMARKS
RUIDOSO        NOT AVBL

$$
NMZ527>531-261500-
NORTHEAST HIGHLANDS/NORTHEAST PLAINS

CITY           SKY/WX    TMP DP  RH WIND       PRES   REMARKS
LAS VEGAS      CLOUDY    26  22  84 NE7       29.74R WCI  18
RATON          LGT SNOW  21  18  88 N13       29.76R VSB 1   WCI   9
CLAYTON        LGT SNOW  25  23  92 N17       29.81F FOG     WCI  12

$$
NMZ532>537-261500-
EASTCENTRAL PLAINS

CITY           SKY/WX    TMP DP  RH WIND       PRES   REMARKS
TUCUMCARI      FLURRIES  30  24  78 E15       29.83R WCI  19
CANNON AFB     NOT AVBL
CLOVIS AIRPORT CLOUDY    25  19  80 N15       29.81R WCI  12

$$
NMZ028-029-538-261500-
SOUTHEAST PLAINS

CITY           SKY/WX    TMP DP  RH WIND       PRES   REMARKS
ROSWELL        CLOUDY    39  23  52 NW3       29.80R
ARTESIA        CLEAR     34  25  69 S7        29.81R WCI  28
CARLSBAD       CLEAR     35  26  69 S3        29.79R
HOBBS          CLEAR     32  30  93 S8        29.81R WCI  25


$$



USA.gov is the U.S. government's official web portal to all federal, state and local government web resources and services.